| time (UTC) | temp C | wind direction | speed KPH | gust KPH | rain 1hr cm | rain 24hr cm | rain mn cm | humidity % | barometer mb |
| 20260904151549 | 8 | 183 | 16.1 | 49.9 | 0.00 | 0.00 | 0.00 | 65 | 1005.5 |
| 20260904150045 | 8 | 275 | 14.5 | 40.2 | 0.00 | 0.00 | 0.00 | 65 | 1005.2 |
| 20260904144544 | 8 | 303 | 16.1 | 33.8 | 0.00 | 0.00 | 0.00 | 63 | 1004.8 |
| 20260904143041 | 7 | 269 | 14.5 | 41.8 | 0.00 | 0.00 | 0.00 | 65 | 1004.5 |
| 20260904141538 | 7 | 244 | 9.7 | 35.4 | 0.00 | 0.00 | 0.00 | 66 | 1004.4 |
| 20260904140038 | -17 | 0.0 | 0.0 | 0.00 | 0.00 | 0.00 | 1003.9 | ||
| 20260904134537 | -17 | 0.0 | 0.0 | 0.00 | 0.00 | 0.00 | 1004.4 | ||
| 20260904133034 | -17 | 0.0 | 0.0 | 0.00 | 0.00 | 0.00 | 1004.0 | ||
| 20260904131524 | -17 | 0.0 | 0.0 | 0.00 | 0.00 | 0.00 | 1004.1 | ||
| 20260904130020 | -17 | 0.0 | 0.0 | 0.00 | 0.00 | 0.00 | 1004.0 | ||
| 20260904124516 | -17 | 0.0 | 0.0 | 0.00 | 0.00 | 0.00 | 1003.8 | ||
| 20260904123010 | -17 | 0.0 | 0.0 | 0.00 | 0.00 | 0.00 | 1004.1 | ||
| 20260904121508 | -17 | 0.0 | 0.0 | 0.00 | 0.00 | 0.00 | 1004.3 | ||
| 20260904120004 | -17 | 0.0 | 0.0 | 0.00 | 0.00 | 0.00 | 1004.6 | ||
| 20260904114502 | 6 | 211 | 14.5 | 35.4 | 0.00 | 0.00 | 0.00 | 68 | 1004.9 |
| 20260904113002 | 6 | 282 | 11.3 | 32.2 | 0.00 | 0.00 | 0.00 | 72 | 1004.7 |
| 20260904111503 | 7 | 280 | 11.3 | 45.1 | 0.00 | 0.00 | 0.00 | 69 | 1004.8 |
| 20260904110100 | 7 | 245 | 14.5 | 29.0 | 0.00 | 0.00 | 0.00 | 68 | 1004.6 |
| 20260904104613 | 7 | 279 | 8.0 | 29.0 | 0.00 | 0.00 | 0.00 | 68 | 1004.7 |
| 20260904103100 | 7 | 280 | 8.0 | 29.0 | 0.00 | 0.00 | 0.00 | 70 | 1004.7 |
| 20260904101558 | 7 | 226 | 6.4 | 29.0 | 0.00 | 0.00 | 0.00 | 71 | 1004.6 |
| 20260904100114 | 7 | 233 | 9.7 | 27.4 | 0.00 | 0.00 | 0.00 | 71 | 1004.8 |
| 20260904094605 | 7 | 325 | 8.0 | 27.4 | 0.00 | 0.00 | 0.00 | 72 | 1005.0 |
| 20260904093058 | 7 | 238 | 8.0 | 25.7 | 0.00 | 0.00 | 0.00 | 72 | 1004.9 |
| 20260904091552 | 7 | 257 | 6.4 | 20.9 | 0.00 | 0.00 | 0.00 | 70 | 1004.9 |
| 20260904090051 | 7 | 171 | 8.0 | 40.2 | 0.00 | 0.00 | 0.00 | 71 | 1005.1 |
| 20260904084550 | 7 | 267 | 11.3 | 35.4 | 0.00 | 0.00 | 0.00 | 70 | 1005.1 |
| 20260904083050 | 7 | 283 | 6.4 | 25.7 | 0.00 | 0.00 | 0.00 | 70 | 1005.4 |
| 20260904081546 | 7 | 320 | 8.0 | 19.3 | 0.00 | 0.00 | 0.00 | 68 | 1005.5 |
| 20260904080042 | 7 | 249 | 6.4 | 27.4 | 0.00 | 0.00 | 0.00 | 69 | 1005.5 |
| 20260904074540 | 7 | 55 | 6.4 | 27.4 | 0.00 | 0.00 | 0.00 | 70 | 1005.5 |
| 20260904073038 | 6 | 246 | 9.7 | 29.0 | 0.00 | 0.00 | 0.00 | 70 | 1005.7 |
| 20260904071538 | 6 | 190 | 6.4 | 29.0 | 0.00 | 0.00 | 0.00 | 70 | 1005.7 |
| 20260904070042 | 7 | 275 | 6.4 | 37.0 | 0.00 | 0.00 | 0.00 | 69 | 1005.6 |
| 20260904064535 | 7 | 286 | 9.7 | 27.4 | 0.00 | 0.00 | 0.00 | 68 | 1005.5 |
| 20260904063040 | 7 | 153 | 9.7 | 25.7 | 0.00 | 0.00 | 0.00 | 69 | 1005.4 |
| 20260904061536 | 6 | 263 | 3.2 | 22.5 | 0.00 | 0.00 | 0.00 | 69 | 1005.5 |
| 20260904060105 | 6 | 267 | 6.4 | 20.9 | 0.00 | 0.00 | 0.00 | 70 | 1005.4 |
| 20260904054534 | 7 | 232 | 6.4 | 17.7 | 0.00 | 0.00 | 0.00 | 72 | 1005.3 |
| 20260904053107 | 7 | 280 | 6.4 | 24.1 | 0.00 | 0.00 | 0.00 | 73 | 1005.4 |
| 20260904051529 | 7 | 227 | 4.8 | 16.1 | 0.00 | 0.00 | 0.00 | 73 | 1005.4 |
| 20260904050033 | 7 | 300 | 9.7 | 25.7 | 0.00 | 0.00 | 0.00 | 71 | 1005.4 |
| 20260904044525 | 7 | 214 | 12.9 | 33.8 | 0.00 | 0.00 | 0.00 | 70 | 1005.5 |
| 20260904043024 | 7 | 244 | 12.9 | 40.2 | 0.00 | 0.00 | 0.00 | 69 | 1005.5 |
| 20260904041527 | 7 | 290 | 6.4 | 20.9 | 0.00 | 0.00 | 0.00 | 71 | 1005.5 |
| 20260904040024 | 7 | 255 | 8.0 | 19.3 | 0.00 | 0.00 | 0.00 | 70 | 1005.4 |
| 20260904034522 | 7 | 277 | 4.8 | 30.6 | 0.00 | 0.00 | 0.00 | 69 | 1005.2 |
| 20260904033021 | 8 | 12 | 9.7 | 27.4 | 0.00 | 0.00 | 0.00 | 68 | 1005.0 |
| 20260904031518 | 8 | 296 | 6.4 | 24.1 | 0.00 | 0.00 | 0.00 | 68 | 1004.9 |
| 20260904030017 | 8 | 199 | 4.8 | 24.1 | 0.00 | 0.00 | 0.00 | 66 | 1005.0 |
| 20260904024517 | 8 | 227 | 3.2 | 25.7 | 0.00 | 0.00 | 0.00 | 64 | 1005.0 |
| 20260904023016 | 9 | 248 | 8.0 | 20.9 | 0.00 | 0.00 | 0.00 | 62 | 1005.0 |
| 20260904021521 | 9 | 273 | 6.4 | 16.1 | 0.00 | 0.00 | 0.00 | 60 | 1005.0 |
| 20260904020014 | 10 | 248 | 4.8 | 14.5 | 0.00 | 0.00 | 0.00 | 59 | 1005.0 |
| 20260904014513 | 10 | 246 | 6.4 | 22.5 | 0.00 | 0.00 | 0.00 | 58 | 1005.2 |
| 20260904013013 | 10 | 206 | 8.0 | 22.5 | 0.00 | 0.00 | 0.00 | 56 | 1005.6 |
| 20260904011512 | 11 | 253 | 9.7 | 32.2 | 0.00 | 0.00 | 0.00 | 53 | 1005.4 |
| 20260904010011 | 12 | 256 | 9.7 | 27.4 | 0.00 | 0.00 | 0.00 | 49 | 1005.1 |
| 20260904004508 | 13 | 263 | 6.4 | 24.1 | 0.00 | 0.00 | 0.00 | 48 | 1005.4 |
| 20260904003007 | 13 | 234 | 11.3 | 24.1 | 0.00 | 0.00 | 0.00 | 46 | 1005.7 |
| 20260904001507 | 13 | 244 | 8.0 | 20.9 | 0.00 | 0.00 | 0.00 | 43 | 1005.5 |
| 20260904000006 | 14 | 293 | 8.0 | 24.1 | 0.00 | 0.00 | 0.00 | 42 | 1005.6 |
| 20260903234506 | 14 | 252 | 6.4 | 30.6 | 0.00 | 0.00 | 0.00 | 42 | 1005.4 |
| 20260903233005 | 15 | 232 | 3.2 | 27.4 | 0.00 | 0.00 | 0.00 | 41 | 1005.5 |
| 20260903231505 | 15 | 264 | 6.4 | 22.5 | 0.00 | 0.00 | 0.00 | 40 | 1005.6 |
| 20260903230004 | 15 | 179 | 6.4 | 24.1 | 0.00 | 0.00 | 0.00 | 39 | 1006.1 |
| 20260903224501 | 15 | 22 | 6.4 | 22.5 | 0.00 | 0.00 | 0.00 | 38 | 1006.3 |
| 20260903223134 | 14 | 225 | 9.7 | 30.6 | 0.00 | 0.00 | 0.00 | 36 | 1006.7 |
| 20260903220057 | 15 | 256 | 14.5 | 35.4 | 0.00 | 0.00 | 0.00 | 32 | 1006.7 |
| 20260903214603 | 15 | 259 | 4.8 | 32.2 | 0.00 | 0.00 | 0.00 | 35 | 1007.0 |
| 20260903213107 | 15 | 255 | 11.3 | 29.0 | 0.00 | 0.00 | 0.00 | 31 | 1007.1 |
| 20260903210113 | 15 | 291 | 14.5 | 37.0 | 0.00 | 0.00 | 0.00 | 31 | 1007.5 |
| 20260903204551 | 16 | 221 | 6.4 | 29.0 | 0.00 | 0.00 | 0.00 | 32 | 1007.4 |
| 20260903203052 | 15 | 179 | 11.3 | 37.0 | 0.00 | 0.00 | 0.00 | 32 | 1007.5 |
| 20260903200046 | 15 | 294 | 4.8 | 32.2 | 0.00 | 0.00 | 0.00 | 32 | 1007.8 |
| 20260903194548 | 15 | 118 | 6.4 | 20.9 | 0.00 | 0.00 | 0.00 | 29 | 1008.1 |
| 20260903193045 | 15 | 310 | 9.7 | 32.2 | 0.00 | 0.00 | 0.00 | 29 | 1008.1 |
| 20260903190040 | 16 | 256 | 4.8 | 30.6 | 0.00 | 0.00 | 0.00 | 27 | 1008.6 |
| 20260903184549 | 15 | 268 | 4.8 | 19.3 | 0.00 | 0.00 | 0.00 | 28 | 1008.8 |
| 20260903183038 | 15 | 46 | 6.4 | 35.4 | 0.00 | 0.00 | 0.00 | 29 | 1008.6 |
| 20260903180038 | 13 | 296 | 11.3 | 32.2 | 0.00 | 0.00 | 0.00 | 27 | 1008.9 |
| 20260903174535 | 13 | 232 | 6.4 | 22.5 | 0.00 | 0.00 | 0.00 | 27 | 1008.9 |
| 20260903173035 | 13 | 215 | 4.8 | 20.9 | 0.00 | 0.00 | 0.00 | 30 | 1008.9 |
| 20260903170032 | 13 | 276 | 4.8 | 29.0 | 0.00 | 0.00 | 0.00 | 34 | 1009.0 |
| 20260903164530 | 13 | 279 | 6.4 | 22.5 | 0.00 | 0.00 | 0.00 | 33 | 1009.0 |
| 20260903163028 | 12 | 268 | 12.9 | 30.6 | 0.00 | 0.00 | 0.00 | 34 | 1009.1 |
| 20260903160034 | 11 | 302 | 8.0 | 24.1 | 0.00 | 0.00 | 0.00 | 35 | 1009.4 |
| 20260903154521 | 11 | 323 | 9.7 | 22.5 | 0.00 | 0.00 | 0.00 | 36 | 1009.6 |
| 20260903153018 | 10 | 277 | 11.3 | 32.2 | 0.00 | 0.00 | 0.00 | 36 | 1009.5 |